Location: ???????
(52.3000°N, 54.4667°E)
Time: 09:44:52
(UTC+00:00)

Cosmos 2082 - Pass Details

Date: 24 January 2020
Orbit: 833 x 856 km, 71.0° (Epoch: 18 February)

Event Time Altitude Azimuth Distance (km) Brightness Sun altitude
Rises 15:51:07 0° 223° (SW) 3,373 7.4 -26.8°
Reaches altitude 10° 15:53:35 10° 228° (SW) 2,444 6.6 -27.2°
Maximum altitude 15:59:06 57° 307° (NW) 984 4.2 -28.0°
Enters shadow 16:00:54 40° 3° (N) 1,229 4.5 -28.3°
